TimeCST,TemperatureF,Dew PointF,Humidity,Sea Level PressureIn,VisibilityMPH,Wind Direction,Wind SpeedMPH,Gust SpeedMPH,PrecipitationIn,Events,Conditions,WindDirDegrees,DateUTC
12:15 AM,36.0,28.8,75,30.28,10.0,Calm,Calm,-,N/A,,Clear,0,2013-12-18 06:15:00
12:35 AM,36.7,28.6,72,30.27,10.0,Calm,Calm,-,N/A,,Clear,0,2013-12-18 06:35:00
12:55 AM,35.2,28.6,77,30.27,10.0,Calm,Calm,-,N/A,,Clear,0,2013-12-18 06:55:00
1:15 AM,39.4,28.9,66,30.26,10.0,ESE,4.6,-,N/A,,Clear,110,2013-12-18 07:15:00
1:35 AM,39.0,29.1,68,30.24,10.0,ESE,5.8,-,N/A,,Clear,110,2013-12-18 07:35:00
1:55 AM,39.7,29.1,66,30.24,10.0,ESE,5.8,-,N/A,,Clear,110,2013-12-18 07:55:00
2:15 AM,40.1,29.1,65,30.24,10.0,ESE,4.6,-,N/A,,Clear,110,2013-12-18 08:15:00
2:35 AM,40.1,29.1,65,30.23,10.0,ESE,4.6,-,N/A,,Clear,120,2013-12-18 08:35:00
2:55 AM,39.9,29.3,66,30.22,10.0,ESE,4.6,-,N/A,,Clear,120,2013-12-18 08:55:00
3:15 AM,39.0,29.1,68,30.22,10.0,ESE,4.6,-,N/A,,Clear,120,2013-12-18 09:15:00
3:35 AM,38.7,29.3,69,30.21,10.0,ESE,3.5,-,N/A,,Clear,120,2013-12-18 09:35:00
3:55 AM,38.3,28.9,69,30.21,10.0,Calm,Calm,-,N/A,,Clear,0,2013-12-18 09:55:00
4:15 AM,37.0,28.6,71,30.20,10.0,East,3.5,-,N/A,,Clear,100,2013-12-18 10:15:00
4:35 AM,36.0,28.6,75,30.19,10.0,ESE,4.6,-,N/A,,Clear,110,2013-12-18 10:35:00
4:55 AM,37.2,29.1,73,30.19,10.0,SE,4.6,-,N/A,,Clear,130,2013-12-18 10:55:00
5:15 AM,36.5,28.8,74,30.18,10.0,Calm,Calm,-,N/A,,Clear,0,2013-12-18 11:15:00
5:35 AM,36.0,28.8,75,30.18,10.0,ESE,3.5,-,N/A,,Clear,120,2013-12-18 11:35:00
5:55 AM,35.6,28.4,75,30.18,10.0,ESE,3.5,-,N/A,,Clear,120,2013-12-18 11:55:00
6:15 AM,35.6,28.6,76,30.18,10.0,ESE,3.5,-,N/A,,Clear,120,2013-12-18 12:15:00
6:35 AM,34.0,28.4,80,30.17,10.0,ESE,5.8,-,N/A,,Clear,110,2013-12-18 12:35:00
6:55 AM,34.0,28.4,80,30.17,10.0,ESE,5.8,-,N/A,,Clear,110,2013-12-18 12:55:00
7:15 AM,33.3,28.4,82,30.17,10.0,East,5.8,-,N/A,,Clear,100,2013-12-18 13:15:00
7:35 AM,33.3,28.4,82,30.17,10.0,ESE,5.8,-,N/A,,Clear,110,2013-12-18 13:35:00
7:55 AM,33.8,28.9,82,30.17,10.0,ESE,4.6,-,N/A,,Clear,120,2013-12-18 13:55:00
8:15 AM,34.0,29.3,83,30.17,10.0,ESE,4.6,-,N/A,,Clear,120,2013-12-18 14:15:00
8:40 AM,34.7,29.7,82,30.17,10.0,Calm,Calm,-,N/A,,Clear,0,2013-12-18 14:40:00
8:55 AM,36.3,30.7,80,30.17,10.0,Calm,Calm,-,N/A,,Clear,0,2013-12-18 14:55:00
9:15 AM,38.7,32.0,77,30.17,10.0,SSE,4.6,-,N/A,,Clear,150,2013-12-18 15:15:00
9:35 AM,40.5,32.0,72,30.16,10.0,SSE,4.6,-,N/A,,Clear,150,2013-12-18 15:35:00
9:55 AM,42.1,32.7,69,30.16,10.0,South,4.6,-,N/A,,Clear,170,2013-12-18 15:55:00
10:15 AM,44.1,32.9,65,30.16,10.0,South,4.6,-,N/A,,Clear,180,2013-12-18 16:15:00
10:35 AM,46.4,33.4,61,30.16,10.0,SSW,4.6,-,N/A,,Clear,200,2013-12-18 16:35:00
10:55 AM,49.1,34.3,57,30.15,10.0,South,6.9,-,N/A,,Clear,190,2013-12-18 16:55:00
11:20 AM,51.3,34.7,53,30.13,10.0,South,10.4,-,N/A,,Clear,190,2013-12-18 17:20:00
11:35 AM,52.3,35.2,52,30.12,10.0,SSW,9.2,-,N/A,,Clear,200,2013-12-18 17:35:00
11:55 AM,55.4,36.1,48,30.10,10.0,South,11.5,-,N/A,,Clear,190,2013-12-18 17:55:00
12:15 PM,58.8,36.7,44,30.09,10.0,SSW,15.0,-,N/A,,Clear,200,2013-12-18 18:15:00
12:35 PM,61.3,36.0,39,30.07,10.0,South,13.8,-,N/A,,Clear,190,2013-12-18 18:35:00
12:55 PM,62.8,34.5,35,30.05,10.0,South,16.1,20.7,N/A,,Clear,190,2013-12-18 18:55:00
1:15 PM,64.4,34.5,33,30.03,10.0,South,16.1,-,N/A,,Clear,180,2013-12-18 19:15:00
1:35 PM,66.6,35.1,31,30.00,10.0,South,17.3,21.9,N/A,,Clear,190,2013-12-18 19:35:00
1:55 PM,68.5,34.3,28,29.99,10.0,SSW,19.6,26.5,N/A,,Clear,200,2013-12-18 19:55:00
2:15 PM,69.4,34.3,27,29.97,10.0,SSW,18.4,-,N/A,,Clear,200,2013-12-18 20:15:00
2:35 PM,69.3,33.8,27,29.96,10.0,South,23.0,-,N/A,,Clear,180,2013-12-18 20:35:00
2:55 PM,69.3,34.5,28,29.95,10.0,South,20.7,28.8,N/A,,Clear,190,2013-12-18 20:55:00
3:15 PM,68.9,34.0,28,29.95,10.0,South,23.0,28.8,N/A,,Clear,190,2013-12-18 21:15:00
3:35 PM,66.7,33.6,29,29.94,10.0,South,18.4,-,N/A,,Clear,190,2013-12-18 21:35:00
3:55 PM,66.9,34.2,30,29.93,10.0,South,18.4,-,N/A,,Clear,190,2013-12-18 21:55:00
4:15 PM,66.2,34.3,31,29.93,10.0,South,16.1,-,N/A,,Clear,180,2013-12-18 22:15:00
4:35 PM,65.8,35.2,32,29.92,10.0,South,15.0,-,N/A,,Clear,180,2013-12-18 22:35:00
4:55 PM,65.3,35.1,33,29.91,10.0,South,13.8,-,N/A,,Clear,180,2013-12-18 22:55:00
5:15 PM,64.0,35.1,34,29.90,10.0,South,15.0,-,N/A,,Clear,170,2013-12-18 23:15:00
5:35 PM,62.8,35.2,36,29.90,10.0,South,15.0,-,N/A,,Clear,170,2013-12-18 23:35:00
5:55 PM,61.9,35.4,37,29.90,10.0,South,16.1,-,N/A,,Clear,170,2013-12-18 23:55:00
6:15 PM,60.6,35.6,39,29.90,10.0,South,11.5,-,N/A,,Clear,170,2013-12-19 00:15:00
6:35 PM,59.7,36.0,41,29.90,10.0,South,15.0,-,N/A,,Clear,180,2013-12-19 00:35:00
6:55 PM,60.6,36.9,41,29.90,10.0,South,16.1,-,N/A,,Clear,180,2013-12-19 00:55:00
7:15 PM,59.2,37.9,45,29.89,10.0,South,17.3,23.0,N/A,,Clear,180,2013-12-19 01:15:00
7:35 PM,59.2,38.8,47,29.89,10.0,South,17.3,-,N/A,,Clear,170,2013-12-19 01:35:00
7:55 PM,58.5,39.2,49,29.89,10.0,South,17.3,-,N/A,,Clear,170,2013-12-19 01:55:00
8:15 PM,58.1,38.7,48,29.90,10.0,SSE,15.0,-,N/A,,Clear,160,2013-12-19 02:15:00
8:35 PM,57.2,39.4,51,29.89,10.0,South,15.0,-,N/A,,Clear,170,2013-12-19 02:35:00
8:55 PM,56.5,39.7,54,29.89,10.0,South,15.0,-,N/A,,Clear,170,2013-12-19 02:55:00
9:15 PM,56.3,40.1,55,29.89,10.0,South,15.0,-,N/A,,Clear,170,2013-12-19 03:15:00
9:35 PM,55.4,40.3,57,29.88,10.0,South,13.8,-,N/A,,Clear,170,2013-12-19 03:35:00
9:55 PM,55.0,40.6,58,29.88,10.0,SSE,12.7,-,N/A,,Clear,160,2013-12-19 03:55:00
10:15 PM,53.8,40.6,61,29.88,10.0,SSE,9.2,-,N/A,,Clear,160,2013-12-19 04:15:00
10:35 PM,52.7,41.0,64,29.88,10.0,SSE,10.4,-,N/A,,Clear,160,2013-12-19 04:35:00
10:55 PM,52.7,41.4,65,29.87,10.0,SSE,9.2,-,N/A,,Clear,160,2013-12-19 04:55:00
11:15 PM,51.8,41.7,68,29.87,10.0,SSE,10.4,-,N/A,,Clear,160,2013-12-19 05:15:00
11:35 PM,53.6,41.9,65,29.87,10.0,South,11.5,-,N/A,,Clear,170,2013-12-19 05:35:00
11:55 PM,54.7,41.5,61,29.86,10.0,South,15.0,-,N/A,,Clear,170,2013-12-19 05:55:00